N5CSC Weather Reports


time (UTC)temp
F
wind
direction
speed
knots
gust
knots
rain 1hr
in
rain 24hr
in
rain mn
in
humidity
%
barometer
mb
20260905010022 89 96 0.0 3.5 0.00 0.00 0.00 49 1009.8
20260905004521 90 113 0.9 6.1 0.00 0.00 0.00 47 1009.7
20260905003023 91 74 0.0 0.0 0.00 0.00 0.00 45 1009.4
20260905001527 92 82 0.0 0.9 0.00 0.00 0.00 44 1009.2
20260905000030 92 107 0.0 1.7 0.00 0.00 0.00 44 1009.0
20260904234518 92 100 0.0 1.7 0.00 0.00 0.00 45 1009.0
20260904233017 91 109 0.0 3.5 0.00 0.00 0.00 47 1008.9
20260904231516 91 109 0.0 2.6 0.00 0.00 0.00 47 1009.1
20260904230014 92 83 0.0 0.9 0.00 0.00 0.00 47 1009.2
20260904224521 92 75 0.0 5.2 0.00 0.00 0.00 48 1009.2
20260904223014 93 81 0.0 3.5 0.00 0.00 0.00 49 1009.2
20260904221507 91 101 0.0 3.5 0.00 0.00 0.00 50 1009.4
20260904220005 90 79 0.0 0.0 0.00 0.00 0.00 53 1009.7
20260904214503 89 51 0.0 2.6 0.00 0.00 0.00 55 1009.9
20260904213059 88 50 0.0 1.7 0.00 0.00 0.00 59 1010.0
20260904211611 87 40 0.0 0.9 0.00 0.00 0.00 61 1010.2
20260904210056 87 23 0.0 3.5 0.00 0.00 0.00 62 1010.4
20260904204555 89 92 0.0 0.0 0.00 0.00 0.00 59 1010.5
20260904203156 89 96 0.0 0.0 0.00 0.00 0.00 56 1010.6
20260904201554 89 96 0.0 0.0 0.00 0.00 0.00 57 1010.7
20260904200054 89 111 0.0 1.7 0.00 0.00 0.00 56 1010.8
20260904194553 89 146 0.0 0.0 0.00 0.00 0.00 55 1010.8
20260904193058 89 175 0.0 0.9 0.00 0.00 0.00 58 1010.9
20260904191554 90 175 0.0 0.0 0.00 0.00 0.00 56 1011.2
20260904190052 90 61 0.0 2.6 0.00 0.00 0.00 56 1011.3
20260904184556 90 109 0.0 3.5 0.00 0.00 0.00 56 1011.3
20260904183054 90 55 0.0 3.5 0.00 0.00 0.00 56 1011.5
20260904181547 90 109 0.0 0.0 0.00 0.00 0.00 58 1011.7
20260904180106 89 182 0.0 4.3 0.00 0.00 0.00 59 1011.8
20260904174550 89 197 0.0 1.7 0.00 0.00 0.00 61 1011.9
20260904173044 88 196 0.0 2.6 0.00 0.00 0.00 62 1012.2
20260904171540 87 108 0.0 1.7 0.00 0.00 0.00 64 1012.4
20260904170046 87 110 0.0 4.3 0.00 0.00 0.00 64 1012.6
20260904164536 87 172 0.0 3.5 0.00 0.00 0.00 64 1012.6
20260904163034 87 155 0.0 5.2 0.00 0.00 0.00 65 1012.5
20260904161533 86 173 1.7 6.1 0.00 0.00 0.00 67 1012.6
20260904160029 86 146 0.0 0.9 0.00 0.00 0.00 69 1012.6
20260904154530 85 135 0.0 0.9 0.00 0.00 0.00 70 1012.5
20260904153025 85 140 0.0 1.7 0.00 0.00 0.00 71 1012.4
20260904151521 84 154 0.0 4.3 0.00 0.00 0.00 73 1012.3
20260904150030 83 180 0.0 3.5 0.00 0.00 0.00 74 1012.2
20260904144518 83 174 0.0 2.6 0.00 0.00 0.00 76 1012.2
20260904143018 82 164 0.0 4.3 0.00 0.00 0.00 77 1012.2
20260904141530 81 196 0.0 0.0 0.00 0.00 0.00 78 1012.2
20260904140036 81 157 0.0 0.0 0.00 0.00 0.00 79 1012.2
20260904134516 80 98 0.0 0.0 0.00 0.00 0.00 79 1012.0
20260904133015 80 80 0.0 0.0 0.00 0.00 0.00 79 1012.1
20260904131512 79 115 0.0 0.0 0.00 0.00 0.00 80 1012.1
20260904130008 79 115 0.0 0.0 0.00 0.00 0.00 79 1011.8
20260904124509 79 117 0.0 0.0 0.00 0.00 0.00 79 1011.7
20260904123007 79 120 0.0 0.0 0.00 0.00 0.00 79 1011.7
20260904121507 79 131 0.0 0.0 0.00 0.00 0.00 79 1011.5
20260904120009 79 167 0.0 0.0 0.00 0.00 0.00 79 1011.3
20260904114506 79 167 0.0 0.0 0.00 0.00 0.00 78 1011.2
20260904113008 79 169 0.0 0.0 0.00 0.00 0.00 78 1010.9
20260904111501 79 169 0.0 0.0 0.00 0.00 0.00 78 1010.8
20260904110001 79 169 0.0 0.0 0.00 0.00 0.00 78 1010.9
20260904104501 79 177 0.0 0.0 0.00 0.00 0.00 78 1010.6
20260904103100 79 177 0.0 0.0 0.00 0.00 0.00 78 1010.6
20260904101607 78 177 0.0 0.0 0.00 0.00 0.00 77 1010.7
20260904094558 78 177 0.0 0.0 0.00 0.00 0.00 76 1010.5
20260904093058 78 177 0.0 0.0 0.00 0.00 0.00 75 1010.5
20260904091556 78 177 0.0 0.0 0.00 0.00 0.00 75 1010.4
20260904090055 79 177 0.0 0.0 0.00 0.00 0.00 75 1010.5
20260904084553 79 177 0.0 0.0 0.00 0.00 0.00 75 1010.5
20260904083059 79 177 0.0 0.0 0.00 0.00 0.00 75 1010.5
20260904081550 79 177 0.0 0.0 0.00 0.00 0.00 74 1010.5
20260904080054 80 177 0.0 0.0 0.00 0.00 0.00 73 1010.7
20260904074645 80 177 0.0 0.0 0.00 0.00 0.00 73 1010.7
20260904073055 80 177 0.0 0.0 0.00 0.00 0.00 73 1010.8
20260904071544 81 177 0.0 0.0 0.00 0.00 0.00 73 1010.8
20260904070045 81 181 0.0 0.0 0.00 0.00 0.00 73 1011.0
20260904064541 81 182 0.0 1.7 0.00 0.00 0.00 72 1011.0
20260904063035 82 176 0.0 0.0 0.00 0.00 0.00 71 1011.0
20260904061538 82 161 0.0 4.3 0.00 0.00 0.00 71 1011.0
20260904060047 82 158 0.0 5.2 0.00 0.00 0.00 70 1011.1
20260904054539 83 138 0.0 5.2 0.00 0.00 0.00 70 1011.2
20260904053032 83 162 0.0 1.7 0.00 0.00 0.00 69 1011.1
20260904051525 83 123 0.0 3.5 0.00 0.00 0.00 69 1011.0
20260904050037 83 180 0.0 3.5 0.00 0.00 0.00 68 1010.9
20260904044526 83 157 0.9 9.6 0.00 0.00 0.00 67 1010.8
20260904043020 83 159 0.9 5.2 0.00 0.00 0.00 66 1010.7
20260904041521 84 173 0.0 4.3 0.00 0.00 0.00 65 1010.6
20260904040035 84 162 0.0 5.2 0.00 0.00 0.00 63 1010.8
20260904034518 85 163 0.9 7.8 0.00 0.00 0.00 62 1010.7
20260904033017 85 109 1.7 7.8 0.00 0.00 0.00 60 1010.6
20260904031521 86 155 0.0 7.0 0.00 0.00 0.00 57 1010.3
20260904030016 86 128 0.0 7.0 0.00 0.00 0.00 55 1010.2
20260904024516 87 154 0.9 4.3 0.00 0.00 0.00 54 1009.8
20260904023131 86 155 0.9 6.1 0.00 0.00 0.00 54 1009.6
20260904021526 86 107 0.0 4.3 0.00 0.00 0.00 55 1009.2
20260904020012 86 125 0.0 0.0 0.00 0.00 0.00 55 1009.1
20260904014511 86 117 0.0 0.0 0.00 0.00 0.00 54 1008.9
20260904013011 86 113 0.0 3.5 0.00 0.00 0.00 53 1008.7
20260904011510 86 111 0.0 7.0 0.00 0.00 0.00 53 1008.5